METEOR 2-11 DEB, 40705

Orbit data source: Space-Track

METEOR 2-11 DEB, 40705 is space debris in LEO originally from a launch on Thu, 05 Jul 1984 UTC launched from the Plesetsk Missile And Space Complex (PKMTR). Debris objects in space refer to the collection of defunct objects orbiting the Earth. Examples of debris include non-operational satellites, rocket bodies, and fragments generated from explosions, collisions, or faulty payload assembly.

Loading next visibility...
METEOR 2-11 DEB details
Identifier
40705, 1984-072G
Orbit
LEO
Last TLE update19 hours ago
Origin
Flag of CISVVKO (CIS)
ManufacturerUnknown
MissionSpacecraft
Bus & MotorUnknown
MassUnknown
Launch date (UTC)
1984-07-05 (40 years ago)
Launch vehicleUnknown
Launch site
Plesetsk Missile And Space Complex (PKMTR)
Object type
Payload
Rocket body
Debris
Shape & HBRUnknown
Radar Cross SectionSmall (<0.1 m²)

Expand to show TLE details & history

TLE from 19 hours ago
0 METEOR 2-11 DEB
1 40705U 84072G   24360.97154039  .00003397  00000-0  24993-2 0  9991
2 40705  82.5207  85.3940 0025590 147.4327 212.8424 13.95179166512201
Epoch: 2024-12-25T23:19Z
Definitive object data (Epoch: 2024-12-25T23:19:01.089Z)
Latitude-0.00006°
Longitude0.68182°
Altitude929.141 km
Speed7.379 km/s
True Right ascension05h 41m 34s
True Declination0° 00' 00"
Sunlit
Object was in full shadow at TLE epoch
Visualization TLE readout
Latitude-73.82966°
Longitude-26.71579°
Altitude951.674 km
Speed7.368 km/s
Apparent Right ascension04h 51m 07s
Apparent Declination-58° 17' 42"
Sunlit
Object is in daylight
Visualization observer readout
Local Sidereal Time17:15:37
Azimuth169.981° S
Elevation-71.208°
Doppler factor1
Orbital elements
Apogee altitude926.319 km
Perigee altitude889.03 km
Semi-major axis7,285.812 km
Eccentricity0.002559
Inclination82.5207°
RAAN85.394°
Arg. of periapsis147.4327°
True anomaly212.68379°
Mean anomaly212.8424°
Eccentric anomaly212.76305°
Mean motion3.49001 °/min
BSTAR0.0024993
Orbital period103.15 mins
Loading maneuver chart data...
Loading historical data...
Loading historical data...
Loading historical data...
Loading historical data...
Loading historical data...
Loading historical data...
Loading historical data...

METEOR 2-11 DEB Visibility forecast

Observer location: undefined°, undefined

Span
Click to sort rows by Start time (UTC) header in descending order
Start Az.
Max El. time (UTC)
Max El. Az.
Max El.
End time (UTC)
End Az.
8 mins2024-12-26 18:51:12.650Z321.813° NNW2024-12-26 18:55:12.650Z271.611° WNW23.142°2024-12-26 18:59:12.650Z223.594° SW
10 mins2024-12-27 06:25:12.650Z178.34° S2024-12-27 06:29:12.650Z118.906° SE44.137°2024-12-27 06:35:12.650Z10.761° NNE
4 mins2024-12-27 08:12:12.650Z272.194° WNW2024-12-27 08:14:12.650Z294.194° NW14.106°2024-12-27 08:16:12.650Z315.971° NNW
9 mins2024-12-27 17:13:12.650Z7.738° NNE2024-12-27 17:17:12.650Z76.194° E38.654°2024-12-27 17:22:12.650Z153.486° SSE
|